Location: Trencin
(48.9000°N, 18.0330°E)
Time: 00:23:03
(UTC+02:00)

ISS - Visible Passes

Search period start: 06 May 2021 00:00
Search period end: 16 May 2021 00:00
Orbit: 418 x 421 km, 51.6° (Epoch: 05 May)

Date Brightness Start Highest point End Pass type
(mag) Time Alt. Az. Time Alt. Az. Time Alt. Az.
06 May -3.9 02:48:20 75° SW 02:48:34 85° SSE 02:51:58 10° ENE visible
06 May -2.9 04:22:15 10° W 04:25:34 51° N 04:28:53 10° ENE visible
07 May -2.5 02:02:24 34° E 02:02:24 34° E 02:04:31 10° ENE visible
07 May -3.1 03:35:20 14° W 03:38:04 54° N 03:41:24 10° ENE visible
08 May -1.1 01:16:27 14° E 01:16:27 14° E 01:17:02 10° ENE visible
08 May -3.3 02:49:24 35° WNW 02:50:35 61° N 02:53:56 10° ENE visible
08 May -3.0 04:24:19 10° WNW 04:27:40 55° N 04:31:00 10° E visible
09 May -3.5 02:03:25 66° NE 02:03:25 66° NE 02:06:30 10° ENE visible
09 May -2.9 03:36:50 10° WNW 03:40:09 51° N 03:43:29 10° E visible
10 May -1.9 01:17:25 26° ENE 01:17:25 26° ENE 01:19:02 10° ENE visible
10 May -2.9 02:50:21 18° WNW 02:52:38 51° N 02:55:58 10° ENE visible
10 May -3.6 04:26:17 10° WNW 04:29:41 80° NNE 04:33:04 10° ESE visible
11 May -0.9 00:31:23 11° ENE 00:31:23 11° ENE 00:31:35 10° ENE visible
11 May -3.1 02:04:19 41° WNW 02:05:08 54° N 02:08:28 10° ENE visible
11 May -3.3 03:38:50 10° WNW 03:42:12 65° NNE 03:45:34 10° E visible
12 May -2.9 01:18:14 49° NE 01:18:14 49° NE 01:20:59 10° ENE visible
12 May -3.1 02:51:22 10° WNW 02:54:42 56° N 02:58:02 10° E visible
12 May -3.6 04:28:14 10° WNW 04:31:34 56° SSW 04:34:53 10° SE visible
13 May -1.8 00:32:03 23° ENE 00:32:03 23° ENE 00:33:31 10° ENE visible
13 May -2.9 02:04:58 19° WNW 02:07:11 51° N 02:10:30 10° E visible
13 May -3.9 03:40:46 10° WNW 03:44:09 78° SSW 03:47:32 10° ESE visible
13 May -1.1 23:45:40 13° ENE 23:45:40 13° ENE 23:46:03 10° ENE visible
14 May -2.9 01:18:33 34° WNW 01:19:39 51° N 01:22:58 10° ENE visible
14 May -3.7 02:53:18 10° WNW 02:56:42 80° NNE 03:00:05 10° ESE visible
14 May -1.9 21:17:14 10° SSE 21:18:57 13° SE 21:20:41 10° ESE visible
14 May -3.9 22:51:54 10° SW 22:55:14 63° SSE 22:58:35 10° ENE visible
15 May -3.0 00:28:49 10° W 00:32:08 54° N 00:35:27 10° ENE visible
15 May -3.4 02:05:50 10° WNW 02:09:13 65° NNE 02:12:34 10° E visible
15 May -3.3 03:42:46 10° WNW 03:45:56 38° SSW 03:49:06 10° SE visible
15 May -3.5 22:04:37 10° SW 22:07:50 43° SSE 22:11:04 10° ENE visible
15 May -3.3 23:41:16 10° W 23:44:37 61° NNW 23:47:58 10° ENE visible
